Find Starlink 4458

NORAD ID: 53668 Int'l Des: 2022-105 Owner: SPXS Country: US Constellation: starlink operational
LEOCIRCULARRETROGRADESSO

リアルタイム位置

3D地球を読み込み中...

Starlink 4458について

説明を読み込み中...

次回通過

Passes for default location (London). Set your location on the main map for personalized predictions.

高度履歴

Loading altitude history...

軌道要素

1 53668U 22105W 26126.58335648 .00602354 00000-0 23007-1 0 9990
2 53668 97.6045 9.2905 0002056 72.2366 169.2332 15.24305334 5567
Epoch: May 6, 2026 • Age: 10 hours

現在のステータス

高度 502.8 km
速度 7.62 km/s
衛星直下点 75.47°N, 109.39°E
打ち上げ日 Aug 31, 2022
運用期間 3.6 years
タイプ internet

技術仕様

分類 Payload
質量 300.00 kg
乾燥質量 290.00 kg
総質量 300.00 kg
長さ 0.20 m
直径 2.80 m
スパン 9.00 m
形状 Box + pan
製造者 SPXS
バスタイプ Starlink
フェーズステータス In Orbit
所有者/国 SPXS/US

Most Searched